Location: Newark
(53.3269°N, 6.3133°W)
Time: 21:20:14
(UTC+00:00)

ISS - Visible Passes

Search period start: 21 January 2020 00:00
Search period end: 31 January 2020 00:00
Orbit: 415 x 421 km, 51.6° (Epoch: 22 January)

Date Brightness Start Highest point End Pass type
(mag) Time Alt. Az. Time Alt. Az. Time Alt. Az.
21 Jan -0.7 19:46:59 10° SSW 19:47:01 10° SSW 19:47:01 10° SSW visible
22 Jan -1.7 18:59:33 10° SSW 19:01:15 18° SSE 19:01:15 18° SSE visible
23 Jan -1.5 18:12:26 10° S 18:14:15 14° SE 18:15:23 12° ESE visible
23 Jan -1.3 19:47:13 10° SW 19:48:20 19° SW 19:48:20 19° SW visible
24 Jan -2.7 18:59:27 10° SW 19:02:24 33° SSE 19:02:24 33° SSE visible
25 Jan -2.3 18:11:48 10° SSW 18:14:38 25° SSE 18:16:26 16° ESE visible
25 Jan -1.7 19:47:43 10° WSW 19:49:22 26° WSW 19:49:22 26° WSW visible
26 Jan -3.4 18:59:47 10° WSW 19:03:04 51° SSE 19:03:21 49° SE visible
27 Jan -3.0 18:11:55 10° SW 18:15:07 41° SSE 18:17:17 18° E visible
27 Jan -1.9 19:48:20 10° W 19:50:13 30° WSW 19:50:13 30° WSW visible
28 Jan -3.7 19:00:20 10° WSW 19:03:40 65° S 19:04:09 55° SE visible
28 Jan -0.2 20:37:01 10° W 20:37:04 10° W 20:37:04 10° W visible
29 Jan -3.4 18:12:20 10° WSW 18:15:39 59° S 18:18:04 17° E visible
29 Jan -2.0 19:48:57 10° W 19:50:59 32° WSW 19:50:59 32° WSW visible
30 Jan -3.6 19:00:54 10° W 19:04:15 65° S 19:04:55 50° SE visible
30 Jan -0.2 20:37:42 10° W 20:37:50 11° W 20:37:50 11° W visible
